Location: Chrząstowo
(52.0654°N, 17.1290°E)
Time: 15:03:43
(UTC+01:00)

YUBILEINY - Visible Passes

Search period start: 18 February 2020 00:00
Search period end: 28 February 2020 00:00
Orbit: 1478 x 1508 km, 82.5° (Epoch: 18 February)

Date Brightness Start Highest point End Pass type
(mag) Time Alt. Az. Time Alt. Az. Time Alt. Az.
18 Feb ? 01:22:59 10° NNW 01:26:49 29° NNW 01:26:49 29° NNW visible
18 Feb ? 03:21:54 10° NW 03:22:44 12° NW 03:22:44 12° NW visible
18 Feb ? 22:36:44 10° N 22:41:47 24° NNE 22:41:47 24° NNE visible
19 Feb ? 00:33:16 10° N 00:37:41 34° N 00:37:41 34° N visible
19 Feb ? 02:31:01 10° NNW 02:33:35 18° NW 02:33:35 18° NW visible
19 Feb ? 17:47:14 10° NNW 17:47:52 10° NNW 17:48:29 10° NNW visible
19 Feb ? 21:47:36 10° N 21:52:39 17° NE 21:52:39 17° NE visible
19 Feb ? 23:43:41 10° N 23:48:33 35° NNE 23:48:33 35° NNE visible
20 Feb ? 01:40:52 10° NNW 01:44:28 26° NNW 01:44:28 26° NNW visible
20 Feb ? 20:59:12 10° NNE 21:01:50 11° NNE 21:03:31 11° NE visible
20 Feb ? 22:54:13 10° N 22:59:25 30° NNE 22:59:25 30° NNE visible
21 Feb ? 00:51:00 10° NNW 00:55:20 33° NNW 00:55:20 33° NNW visible
21 Feb ? 02:49:27 10° NNW 02:51:14 14° NW 02:51:14 14° NW visible
21 Feb ? 22:04:55 10° N 22:10:18 22° NE 22:10:18 22° NE visible
22 Feb ? 00:01:19 10° N 00:06:12 38° N 00:06:12 38° N visible
22 Feb ? 01:58:53 10° NNW 02:02:07 22° NW 02:02:07 22° NW visible
22 Feb ? 21:15:53 10° N 21:20:43 15° NE 21:21:11 15° NE visible
22 Feb ? 23:11:46 10° N 23:17:05 36° NNE 23:17:05 36° NNE visible
23 Feb ? 01:08:49 10° NNW 01:13:00 30° NNW 01:13:00 30° NNW visible
23 Feb ? 03:08:49 10° NW 03:08:54 10° NW 03:08:54 10° NW visible
23 Feb ? 20:28:35 10° NNE 20:29:20 10° NNE 20:30:06 10° NNE visible
23 Feb ? 22:22:21 10° N 22:27:58 29° NE 22:27:58 29° NE visible
24 Feb ? 00:19:01 10° NNW 00:23:53 38° NNW 00:23:53 38° NNW visible
24 Feb ? 02:17:09 10° NNW 02:19:48 17° NW 02:19:48 17° NW visible
24 Feb ? 21:33:07 10° N 21:38:53 20° NE 21:38:53 20° NE visible
24 Feb ? 23:29:23 10° N 23:34:47 41° N 23:34:47 41° N visible
25 Feb ? 01:26:47 10° NNW 01:30:42 26° NW 01:30:42 26° NW visible
25 Feb ? 20:44:15 10° N 20:48:18 14° NE 20:49:47 13° NE visible
25 Feb ? 22:39:53 10° N 22:45:41 36° NNE 22:45:41 36° NNE visible
26 Feb ? 00:36:49 10° NNW 00:41:36 35° NNW 00:41:36 35° NNW visible
26 Feb ? 02:35:57 10° NW 02:37:30 13° NW 02:37:30 13° NW visible
26 Feb ? 21:50:30 10° N 21:56:36 27° NE 21:56:36 27° NE visible
26 Feb ? 23:47:04 10° NNW 23:52:30 43° N 23:52:30 43° N visible
27 Feb ? 01:44:55 10° NNW 01:48:25 21° NW 01:48:25 21° NW visible
27 Feb ? 21:01:20 10° N 21:07:03 18° NE 21:07:30 18° NE visible
27 Feb ? 22:57:28 10° N 23:03:25 43° NNE 23:03:25 43° NNE visible
